Location: Cahas Mountain Overlook
(37.0833°N, 80.1000°W)
Time: 06:38:17
(UTC-05:00)

Vanguard 2 Rocket - Pass Details

Date: 12 February 2026
Orbit: 553 x 3287 km, 32.9° (Epoch: 5 March)

Event Time Altitude Azimuth Distance (km) Brightness Sun altitude
Rises 19:21:27 0° 277° (W) 4,781 12.2 -17.3°
Reaches altitude 10° 19:25:34 10° 270° (W) 3,325 11.1 -18.1°
Maximum altitude 19:32:19 34° 208° (SSW) 1,446 8.2 -19.5°
Enters shadow 19:35:49 16° 151° (SSE) 1,876 8.2 -20.2°
